Deposits today 26.03.2019

#HyipDeposits
1.bitaeon.io VIP
2.mainrobots.com VIP
3.empowerforex.biz VIP
4.oilinv.com VIP
5.lomba-group.com $1000
6.maxi-bit.com $460
7.crowdmining.org $314
8.ligalaize.com $300
9.stockfund.co $100
10.cryptoattack.biz $50
11.queen-coin.com $50
12.24paygold.com $10
13.valleybit.net $10

Deposits via monitors today 26.03.2019

#MonitorDeposits
1.fairmonitor.com TOP
2.profvest.com TOP
3.invest-withstan.c...$2074.00
4.hyip.observer$100.00
5.myinvestblog.ru$60.00
6.all-hyips.info$60.00



















Seasonal discounts on advertising up to 50%.

TOP-100 HYIPs long-livers

#HYIP AgeDate addAmount depoStatus
1ksakep.com4 years 7 mons 18 days 07/08/2014$1 383.41paying
2dollarbill.biz3 years 5 mons 28 days 27/09/2015$1 990.00paying
3usdprofit.net3 years 5 mons 26 days 29/09/2015$142 245.56paying
4funds-broker.com3 years 5 mons 11 days 14/10/2015$1 319.00paying
5yesss.cc3 years 5 mons 10 days 15/10/2015$2 935.00paying
6winberg-sport.com3 years 3 mons 28 days 27/11/2015$350.00paying
7wcapital.biz1 year 5 mons 15 days 10/10/2017$11 036.29paying
8hourguarantee.com1 year 4 mons 11 days 14/11/2017$656 932.81paying
9digitalcoinfortune.com1 year 3 mons 5 days 20/12/2017$2 458.00paying
10crypto-mercury.xyz11 mons 23 days 02/04/2018$1 330.00paying
11siat.trade11 mons 20 days 05/04/2018$104 467.50paying
12armotrade.com9 mons 22 days 03/06/2018$1 492.00paying
13bizzilion.com9 mons 19 days 06/06/2018$31 498.10paying
14wssavior.com8 mons 29 days 26/06/2018$11 190.00paying
15caribbean-dream.biz8 mons 26 days 29/06/2018$79 679.95paying
16insmining.com8 mons 21 days 04/07/2018$29 570.71paying
17coinminersltd.com8 mons 20 days 05/07/2018$10.00paying
18bitwealth.company8 mons 14 days 11/07/2018$9 238.84paying
19club-betal.org7 mons 25 days 31/07/2018$108.56paying
20zion-finance.com7 mons 19 days 07/08/2018$1 488.00paying
21investacorp.website7 mons 11 days 14/08/2018$120.00paying
22eco-venture.loan7 mons 9 days 16/08/2018$6 955.07paying
23capex24.com7 mons 5 days 20/08/2018$4 764.69paying
24crownbit.net7 mons 3 days 22/08/2018$1 669.00paying
25bittency.com7 mons 2 days 23/08/2018$1 700.00paying
26bitboots.com6 mons 23 days 02/09/2018$19 700.00paying
27dshfinance.com6 mons 22 days 03/09/2018$99 254.11paying
28ppearn.biz6 mons 12 days 13/09/2018$1 730.00paying
29oxogafinance.com6 mons 10 days 15/09/2018$27 967.83paying
30fxoption.biz6 mons 9 days 16/09/2018$30 897.36paying
31solidchanger.com6 mons 5 days 20/09/2018$298.00paying
32linecrypto.ltd6 mons 2 days 23/09/2018$63.88paying
33ioxtrades.com6 mons 25/09/2018$6 979.84paying
34brixorfinance.com6 mons 25/09/2018$30 940.11paying
35investexo.com5 mons 27 days 28/09/2018$2 777.00paying
36profit24hlimited.com5 mons 21 days 05/10/2018$82.00paying
37kingofprofitmaker.com5 mons 16 days 09/10/2018$141.00paying
38megapassivecycler.com5 mons 16 days 10/10/2018$79 123.00paying
39cryptolia.net5 mons 14 days 11/10/2018$595.00paying
40decentralized-9.biz5 mons 14 days 11/10/2018$360.00paying
418bit.ltd5 mons 12 days 13/10/2018$8 715.00paying
42magnuscapitalcenter.com5 mons 11 days 14/10/2018$7 876.00paying
43wallie.me5 mons 11 days 14/10/2018$2 292.89paying
44zonders.pro5 mons 9 days 16/10/2018$36 671.93paying
45escading.com5 mons 7 days 18/10/2018$7 875.00paying
46worldestdev.com5 mons 7 days 18/10/2018$43 135.21paying
47zimikfinance.com5 mons 3 days 22/10/2018$39 727.35paying
48 bitaeon.io5 mons 2 days 23/10/2018VIPpaying
49globaloffice.me4 mons 27 days 29/10/2018$22 867.00paying
50bitbuster.io4 mons 27 days 29/10/2018$6 855.00paying
51 mainrobots.com4 mons 26 days 30/10/2018VIPpaying
52crypto-mining.ltd4 mons 24 days 01/11/2018$12 452.05paying
53fexbet.com4 mons 22 days 03/11/2018$13 870.56paying
54mindhome.io4 mons 21 days 04/11/2018$310.00paying
55noxeem.com4 mons 19 days 06/11/2018$6 280.12paying
56mizes.biz4 mons 17 days 08/11/2018$18 835.70paying
57nextergy.net4 mons 15 days 10/11/2018$20.00paying
58doubly.io4 mons 10 days 15/11/2018$13 546.48paying
59itbusc.com4 mons 8 days 17/11/2018$1 510.00paying
60fun-fishermen.org4 mons 7 days 18/11/2018$2 120.86paying
61starbankgroup.com4 mons 6 days 19/11/2018$10 113.00paying
62itbuscom.com4 mons 5 days 20/11/2018$785.00paying
63wenzbit.com4 mons 4 days 21/11/2018$7 516.00paying
64hourmining.biz4 mons 4 days 21/11/2018$16 237.22paying
65weenzee.com4 mons 2 days 23/11/2018$55 194.77paying
66elegantearn.biz4 mons 1 day 24/11/2018$550.00paying
67globalleaderbank.com4 mons 25/11/2018$1 885.00paying
68earnsure.biz4 mons 25/11/2018$1.00paying
69pluto-mining.net3 mons 29 days 26/11/2018$9 783.57paying
70hourer.biz3 mons 28 days 27/11/2018$7 699.37paying
71btc-future.biz3 mons 28 days 27/11/2018$230.00paying
72zebramax.online3 mons 28 days 27/11/2018$30.00paying
73profitablegrowth.loan3 mons 24 days 01/12/2018$108 165.00paying
74hourmex.com3 mons 21 days 04/12/2018$10 204.43paying
75dailypaying.com3 mons 19 days 06/12/2018$460.00paying
76longinvest.biz3 mons 18 days 07/12/2018$2 716.00paying
777energy.org3 mons 18 days 07/12/2018$700.50paying
78sigmatrade.biz3 mons 16 days 09/12/2018$22 792.00paying
79goldminerscooperative.com3 mons 15 days 10/12/2018$1 810.00paying
80amazing-coin.net3 mons 14 days 11/12/2018$48 083.76paying
81medtech.biz3 mons 13 days 12/12/2018$10.00paying
82banksolidpay.top3 mons 10 days 16/12/2018$4 913.00paying
83hourbet.biz3 mons 8 days 17/12/2018$4 241.94paying
84okmaxgold.com3 mons 7 days 18/12/2018$2 104.50paying
85eostrade.market3 mons 5 days 20/12/2018$1 073.00paying
86nyield.net3 mons 5 days 20/12/2018$85.00paying
87tresor.capital3 mons 4 days 21/12/2018$569.00paying
88exodus.finance3 mons 2 days 23/12/2018$10.00paying
89winance.eu3 mons 25/12/2018$1 100.00paying
90rooxi.biz3 mons 25/12/2018$6 827.23paying
91staccess.biz2 mons 28 days 28/12/2018$70.00paying
92eratechplanet.com2 mons 27 days 29/12/2018$100.00paying
93trusthour.biz2 mons 25 days 31/12/2018$161.50paying
94mining-2019.com2 mons 24 days 01/01/2019$85.00paying
95larbitrage.com2 mons 23 days 02/01/2019$2 098.00paying
96paydec.net2 mons 22 days 03/01/2019$2 129.27paying
97cashluxe.trade2 mons 21 days 04/01/2019$2 210.00paying
98omvisfinance.com2 mons 19 days 06/01/2019$13 230.00paying
99mexotrading.com2 mons 18 days 07/01/2019$600.00paying
100rescueminers.com2 mons 18 days 07/01/2019$1 648.00paying















Seasonal discounts on advertising up to 50%.

Deposits yesterday 25.03.2019

#HyipDeposits
1.bitaeon.io VIP
2.mainrobots.com VIP
3.empowerforex.biz VIP
4.oilinv.com VIP
5.paocard.com $3835
6.instanthour.biz $3074
7.forexbusines.com $2708
8.bitbpro.com $2082
9.citybuildtrade.com $2046
10.fxoption.biz $1800
11.randomex.cc $1779
12.weenzee.com $1730
13.binghours.com $1703
14.dingcoins.com $1688
15.jetnodes.com $1542
16.hourguarantee.com $1491
17.sensationhour.com $1438
18.valleybit.net $1382
19.forest4.biz $1055
20.megapassivecycler.... $965
21.graceincome.com $960
22.arbitrage.guru $945
23.usdprofit.net $900
24.stable-bank.club $848
25.albiton.io $842
26.bitcrown.co $827
27.barrybondcapital.c... $821
28.invest2rich.com $800
29.coinextender.com $800
30.hashhub.net $800
31.bettekk.com $800
32.first-trading.org $740
33.stockfund.co $703
34.smartrex.io $635
35.24paygold.com $605
36.raedventures.co $600
37.btcfastincome.club $582
38.stepworth.biz $575
39.wolfscapital.com $570
40.allhourspay.com $561
41.alulacap.com $556
42.radiantsystems.biz $542
43.supercrypto.biz $540
44.icurrent.global $500
45.globaloffice.me $500
46.wssavior.com $500
47.mph-one.com $500
48.proledgr.io $480
49.fastloans.cc $472
50.cryptoposition.ltd $450
51.bitmania.cc $440
52.visimifinance.com $430
53.exeons.com $427
54.archemous.com $425
55.fexbet.com $400
56.coinanza.com $400
57.rankinvest.top $400
58.bitboots.com $399
59.market-trade.live $380
60.escading.com $380
61.amazing-coin.net $375
62.denarlion.com $361
63.topfunds.biz $360
64.volterixcoin.com $321
65.benforex.com $320
66.cryptelement.com $320
67.cryptoattack.biz $310
68.oxyvax.com $305
69.bizzilion.com $300
70.maxi-bit.com $290
71.high-r.biz $280
72.dshfinance.com $260
73.fastgrowingfund.co... $251
74.warminverter.biz $250
75.terrainvest-ltd.co... $245
76.amabit.biz $233
77.bluestonecapital.l... $230
78.maxipaid.biz $230
79.wikprofit.com $220
80.crowdmining.org $215
81.king-generation.co... $212
82.btc-rise.cc $210
83.btraders.me $210
84.flextrade.cc $206
85.argon7.biz $205
86.omvisfinance.com $200
87.payboxsol.com $200
88.royal-dynasty.com $185
89.ceribo.com $180
90.zonders.pro $180
91.trans-continental.... $170
92.fiftytool.pro $151
93.brixorfinance.com $150
94.aquilon.trade $150
95.profitinity.com $146
96.bit-buzzer.com $132
97.indigoincome.biz $132
98.oxogafinance.com $120
99.tradinginv.live $110
100.coinext.biz $105
101.e-investars.com $100
102.grantis.club $100
103.evenrex.com $100
104.cmidx.com $100
105.elitpayments.com $100
106.zepex.biz $100
107.biopharmashares.co... $100
108.itbusc.com $100
109.queen-coin.com $100
110.exway.pro $100
111.investobiz.cc $90
112.venox.ltd $90
113.noxeem.com $84
114.mizes.biz $80
115.pacifictrade.cc $80
116.armotrade.com $80
117.cbcgroup.global $77
118.payinhour.com $75
119.longinvest.biz $70
120.insmining.com $70
121.zeissbank.com $70
122.integratrade.biz $70
123.forexrangers.com $70
124.stariobit.com $61
125.investmarket.net $60
126.coinkdj.com $50
127.cryptoghost.biz $50
128.bitpaybots.io $50
129.solidtradebank.com $50
130.forexkong.biz $50
131.hpxcrypto.com $50
132.8bit.ltd $50
133.opulencecrypto.com $50
134.standardprofit.net $50
135.ntwgold.com $50
136.moneycheap.pro $50
137.bit-ico.biz $45
138.peakprizes.info $45
139.bitbuster.io $40
140.goldminerscooperat... $40
141.statum.global $40
142.777club.club $40
143.brilliantalliance.... $40
144.superkopilka.com $35
145.tophats.farm $30
146.caribbean-dream.bi... $30
147.basicearn.com $30
148.bcinvest.tech $30
149.letfxdo.com $27
150.magnuscapitalcente... $25
151.bitcabinet.biz $25
152.pluto-mining.net $25
153.pacific-insurance.... $25
154.derglobal.biz $25
155.cointexbit.net $25
156.lavi-hotel.com $23
157.securegains.io $20
158.mrputin.biz $20
159.aria1.ai $20
160.worldestdev.com $20
161.blockswap.biz $20
162.mfo.capital $20
163.best-sports.org $16
164.dowoption.com $15
165.digitalcoinfortune... $10
166.income.bz $10
167.bitwealth.company $10
168.ppearn.biz $10
169.fastbtcmoney.com $9
170.instantgain.club $6
171.hourex.biz $5
172.hourmex.com $5
173.hourmining.biz $5

Deposits via monitors yesterday 25.03.2019

#MonitorDeposits
1.fairmonitor.com TOP
2.profvest.com TOP
3.invest-tracing.co...$13192.00
4.myhyips.net$8345.72
5.sanegain.com$6588.00
6.graspgold.com$6022.42
7.uhyips.com$5777.20
8.instantscamalert....$2132.40
9.all-hyips.me$2045.00
10.hyipscope.org$1861.00
11.secure-investment...$1840.00
12.all-hyips.info$1824.82
13.hyipregular.org$1820.00
14.hyipmaster.org$1661.29
15.exclusive-profit....$1300.00
16.14monitor.com$1228.00
17.monhyip.net$1198.00
18.trading-hyips.com$1110.33
19.myinvestblog.ru$1013.00
20.investorscare.com$1000.00
21.hyip.observer$755.40
22.e-invest.biz$723.21
23.invest-withstan.c...$720.00
24.pbhyips.info$700.00
25.hyiptank.net$672.66
26.hyip-cruiser.com$512.00
27.elite-monitor.com$501.00
28.richinvestmonitor...$458.68
29.hyipincome.com$382.79
30.deluxemonitor.com$330.00
31.e-investars.com$297.00
32.allhyip.net$180.00
33.hyipindustry.com$47.00
34.phyips.com$40.00
35.splinter-life.com$30.77
36.makeindmoney.com$25.00
37.mega-hyip.ru$20.00
38.newhyipstate.info$20.00
39.paying.club$20.00
40.adsliner.ru$10.00
41.iehyip.com$6.00
42.hyipdollar.com$5.00